Location: Sobotiste
(48.7170°N, 17.4000°E)
Time: 18:08:44
(UTC+01:00)

CUBEBUG 2 - Visible Passes

Search period start: 14 March 2026 00:00
Search period end: 24 March 2026 00:00
Orbit: 548 x 629 km, 97.9° (Epoch: 14 March)

Date Brightness Start Highest point End Pass type
(mag) Time Alt. Az. Time Alt. Az. Time Alt. Az.
14 Mar ? 02:48:10 10° N 02:49:27 19° N 02:49:27 19° N visible
15 Mar ? 02:55:47 10° N 02:57:13 20° N 02:57:13 20° N visible
16 Mar ? 01:28:09 10° NE 01:28:27 11° NE 01:28:27 11° NE visible
16 Mar ? 03:03:23 10° N 03:04:58 20° NNW 03:04:58 20° NNW visible
17 Mar ? 01:35:32 10° NNE 01:36:12 14° NE 01:36:12 14° NE visible
17 Mar ? 03:11:00 10° N 03:12:42 20° NNW 03:12:42 20° NNW visible
18 Mar ? 01:42:56 10° NNE 01:43:56 16° NE 01:43:56 16° NE visible
18 Mar ? 03:18:38 10° N 03:20:26 20° NNW 03:20:26 20° NNW visible
19 Mar ? 01:50:20 10° NNE 01:51:39 18° NE 01:51:39 18° NE visible
19 Mar ? 03:26:16 10° N 03:28:09 19° NNW 03:28:09 19° NNW visible
20 Mar ? 01:57:45 10° NNE 01:59:21 21° NNE 01:59:21 21° NNE visible
20 Mar ? 03:33:55 10° NNW 03:35:51 18° NW 03:35:51 18° NW visible
21 Mar ? 02:05:11 10° NNE 02:07:02 24° NNE 02:07:02 24° NNE visible
21 Mar ? 03:41:36 10° NNW 03:43:33 17° NW 03:43:33 17° NW visible
22 Mar ? 02:12:37 10° NNE 02:14:42 28° NNE 02:14:42 28° NNE visible
22 Mar ? 03:49:18 10° NNW 03:51:13 15° NW 03:51:13 15° NW visible
23 Mar ? 02:20:03 10° NNE 02:22:22 31° NNE 02:22:22 31° NNE visible
23 Mar ? 03:57:05 10° NNW 03:58:53 14° NW 03:58:53 14° NW visible
